Wind_Speed
43 39 39 33 36 34 31 31 29 27 25 31 31 29 30 31 31 29 28 26 22 20 18 18 17 17 15 18 18 15 12 16 19 18 15 13 22 21 16 21 23 23 21
37 43 45 42 38 38 32 32 31 27 26 33 36 41 33 30 30 30 27 22 22 18 18 19 20 19 17 19 17 18 14 17 24 25 23 21 24 23 23 23 27 27 23
29 36 43 45 40 38 32 28 29 27 28 32 30 29 26 25 26 29 23 19 18 19 17 18 17 16 15 14 10 11 12 11 16 21 21 21 24 25 22 21 23 24 23
30 33 33 41 37 30 28 27 22 17 31 21 13 9 6 8 14 24 13 9 15 19 15 14 15 15 13 13 13 11 19 17 17 17 14 15 17 17 18 19 19 18 20
21 25 29 33 28 28 24 16 16 19 16 5 1 2 4 3 2 9 11 7 7 10 12 11 9 9 11 14 14 13 19 13 11 13 14 15 15 16 17 18 21 22 22
19 18 24 27 20 3 17 14 19 13 7 5 4 4 6 5 5 7 9 11 7 8 9 9 11 8 9 11 9 9 11 11 11 10 10 12 13 13 16 19 20 19 21
11 15 20 19 16 33 32 29 28 13 9 6 4 5 3 4 3 4 7 10 11 10 10 8 10 11 8 9 8 10 11 11 11 11 12 12 13 14 18 20 20 23 24
10 15 20 19 18 27 35 28 21 16 12 8 8 11 8 9 9 6 4 3 3 4 8 12 13 13 12 13 13 14 14 13 13 13 14 13 14 15 17 20 25 25 28
16 15 15 16 20 27 28 24 20 17 14 12 12 11 8 10 10 7 5 5 5 7 7 8 9 9 10 12 13 14 15 15 17 16 17 19 20 22 24 25 24 23 29
22 20 22 24 22 21 22 23 22 17 14 13 13 11 10 9 10 9 8 6 5 4 4 6 6 6 7 9 11 13 13 14 16 17 17 17 17 15 15 16 17 20 21
19 24 23 23 20 22 24 21 20 17 16 16 16 16 14 12 13 12 11 9 9 8 3 2 6 8 10 12 13 13 13 12 11 10 9 9 10 10 9 9 10 11 11
25 26 24 25 24 21 20 18 17 18 17 17 18 18 15 13 9 7 7 6 4 4 4 6 7 8 8 8 7 6 4 4 2 2 4 7 10 13 14 14 15 16 17
32 29 27 26 24 21 19 18 16 17 16 16 14 16 15 12 8 4 2 5 5 4 4 4 6 7 8 6 3 2 4 6 7 9 12 15 16 19 21 24 24 26 27
38 33 31 29 27 24 21 19 18 17 15 14 15 15 14 11 8 3 1 1 3 4 4 5 6 4 4 6 6 8 12 15 19 21 20 20 20 19 21 21 23 24 25
29 30 28 30 30 27 22 19 16 16 10 12 12 12 11 10 8 6 5 5 5 3 3 4 3 3 5 9 12 15 19 22 23 21 20 18 18 20 21 22 24 24 21
31 31 31 30 29 28 25 23 19 17 18 16 16 14 11 7 8 6 4 3 1 1 1 5 5 6 8 12 17 19 21 21 18 17 18 19 20 20 20 21 23 22 21
29 28 27 23 23 23 20 18 17 17 17 16 13 12 9 9 7 6 4 2 4 6 7 6 8 9 11 16 19 20 19 16 16 16 17 20 17 15 18 20 18 18 18
24 20 20 19 20 19 16 16 13 12 12 12 9 7 7 7 7 4 3 5 6 7 9 8 9 10 12 18 17 17 15 14 14 16 17 17 16 16 16 17 16 16 15
21 19 18 18 17 13 14 13 11 11 10 9 5 3 5 8 7 6 7 10 9 9 9 10 11 12 17 19 12 11 10 11 12 13 14 13 12 13 13 13 12 11 11
17 15 16 14 12 11 10 8 6 4 1 2 3 1 2 5 6 8 9 9 9 9 9 11 10 14 20 15 9 9 8 8 10 9 9 9 9 11 12 11 10 9 10
8 8 8 8 7 4 1 2 4 5 7 7 7 6 8 9 9 11 12 13 10 10 11 11 12 15 17 10 8 7 8 8 8 8 8 8 8 9 10 11 11 11 13
9 10 9 7 6 3 1 3 5 6 5 6 7 10 11 11 10 10 12 14 12 10 9 12 13 16 15 11 10 9 9 9 8 8 9 10 11 11 12 13 15 15 16
7 7 6 5 5 5 6 4 2 2 4 6 7 5 4 5 7 9 9 8 10 10 11 12 12 13 14 14 13 11 9 8 9 10 11 12 12 13 14 15 16 17 16
6 5 8 6 2 3 7 5 3 1 0 1 3 3 4 3 3 7 9 10 13 15 13 12 13 13 12 14 15 14 11 9 11 12 15 16 17 17 18 19 18 18 19
3 1 4 4 3 4 4 3 2 3 5 5 6 4 2 3 4 7 9 11 10 11 10 13 15 17 17 16 17 15 14 14 15 16 16 18 18 19 19 20 21 21 21
2 4 5 6 5 6 6 4 4 7 9 8 9 10 9 10 11 13 13 15 17 18 18 19 19 20 21 21 19 19 19 19 20 20 22 21 21 21 22 23 23 25 25
Wind_Direction
238 243 245 245 243 242 240 237 237 241 254 262 257 280 276 255 255 260 255 236 247 248 245 252 263 266 257 246 241 239 208 210 231 221 202 192 202 224 258 248 257 268 264
245 243 241 247 242 242 241 239 237 233 246 257 257 277 281 262 255 250 237 249 235 239 251 255 259 260 258 254 258 240 201 208 223 226 218 215 227 242 266 258 246 256 259
246 243 246 246 246 244 239 236 238 231 244 251 276 287 287 270 257 249 241 231 243 248 250 248 248 247 244 242 255 263 223 219 237 243 227 229 239 251 250 255 262 259 255
261 252 243 247 245 239 233 231 216 254 269 272 273 288 285 32 195 207 204 204 266 254 244 239 239 237 233 228 234 243 255 238 228 233 234 234 238 243 247 257 270 275 263
260 248 243 240 234 220 220 210 255 238 228 263 101 151 117 143 168 185 190 153 288 288 293 294 304 248 242 242 246 242 239 222 227 243 245 246 248 252 253 258 262 266 266
299 259 234 210 202 74 305 273 251 200 209 183 171 172 181 183 215 238 248 242 273 274 288 267 269 274 264 258 248 237 252 247 248 249 252 254 257 262 262 269 274 273 278
282 245 210 203 209 311 260 232 205 202 194 176 150 163 145 137 177 231 249 250 247 236 229 249 258 231 227 228 231 225 233 244 253 261 265 270 277 280 281 281 284 284 279
217 213 213 228 231 204 209 204 197 190 178 155 123 107 104 115 123 134 156 175 208 200 190 217 232 234 235 239 241 244 249 253 257 263 269 270 280 279 280 283 281 282 279
219 206 190 188 185 184 184 179 183 181 169 151 132 115 121 121 116 121 141 168 183 197 206 225 243 251 254 254 254 253 254 254 259 266 271 277 278 276 280 279 282 285 283
234 212 187 177 176 190 184 178 168 167 157 158 136 136 138 131 120 120 131 162 183 201 230 231 241 261 264 258 258 265 267 266 266 266 266 266 270 273 277 286 288 283 284
240 201 182 176 173 180 174 170 156 152 159 145 143 140 131 125 119 111 106 106 118 122 137 264 278 276 271 274 279 282 285 286 284 283 283 278 274 272 277 291 302 302 289
224 198 187 166 165 181 171 159 148 150 159 152 148 139 141 133 122 113 105 96 65 11 319 312 310 305 301 303 306 324 335 28 22 288 294 285 285 287 289 288 288 293 289
204 189 168 160 157 171 162 148 150 159 156 152 147 147 150 146 136 120 83 352 342 348 343 355 9 20 26 39 64 63 12 351 336 323 312 310 310 309 305 301 296 290 281
184 168 166 156 163 158 142 134 144 151 154 145 149 148 145 142 149 172 260 228 31 9 26 18 43 51 52 46 13 348 335 328 326 317 305 300 300 301 304 302 301 298 290
161 159 159 152 148 141 133 136 142 132 139 142 135 127 126 134 134 126 128 104 61 69 60 14 336 338 343 344 339 330 321 315 313 307 303 299 302 302 299 298 299 297 295
156 154 150 145 136 137 139 131 128 119 116 117 112 102 107 118 114 114 128 113 59 66 324 359 3 342 338 336 332 324 320 316 309 304 304 309 314 313 310 308 303 296 291
140 147 142 139 140 143 142 140 136 133 137 137 127 122 128 146 132 130 127 225 263 273 263 294 327 333 323 324 324 321 319 310 305 305 310 309 309 313 317 319 321 316 308
132 133 127 139 151 139 120 122 119 125 130 139 130 146 173 179 195 212 240 286 280 270 249 276 305 300 304 320 318 322 319 308 300 300 302 303 302 304 306 311 314 316 318
144 143 142 145 142 127 122 123 117 119 116 121 151 152 224 223 229 243 268 291 279 275 270 296 305 297 316 319 319 330 333 325 317 318 313 307 306 308 312 318 323 329 333
119 120 143 142 139 129 116 106 97 117 119 286 270 335 304 265 273 276 293 302 286 282 290 305 298 311 322 315 319 332 336 328 320 323 317 313 321 323 323 322 325 331 339
133 133 135 131 128 130 125 249 258 251 263 271 281 295 306 303 297 289 288 299 279 275 292 305 295 312 323 316 320 341 355 347 338 334 330 324 325 328 329 330 327 323 323
107 110 110 97 79 58 356 308 294 283 246 255 276 291 289 276 276 277 283 277 282 281 291 291 297 318 326 323 326 315 329 336 339 336 332 326 320 316 312 312 315 317 322
98 105 81 29 7 24 357 10 299 233 277 294 303 276 247 273 269 261 288 276 281 286 296 277 298 316 326 329 320 314 311 324 334 337 338 336 335 335 333 330 328 323 321
56 49 51 49 70 43 36 46 65 82 152 57 43 11 278 304 302 272 284 290 294 297 292 276 290 310 315 324 310 296 294 304 316 323 324 326 328 328 326 326 327 325 320
27 4 12 351 320 323 333 357 356 325 318 308 293 305 301 344 331 294 291 294 302 297 293 288 285 293 299 297 306 288 282 287 294 302 308 312 316 319 319 316 315 317 317
357 2 342 313 322 321 314 309 301 304 307 293 282 284 293 291 290 288 293 293 296 290 288 287 283 286 290 285 290 300 285 281 288 295 293 294 302 309 312 313 312 310 312
Height
1488 1488 1492 1493 1495 1497 1500 1506 1512 1513 1515 1513 1510 1504 1499 1500 1505 1507 1509 1511 1511 1514 1516 1517 1516 1516 1516 1517 1518 1517 1517 1518 1522 1525 1526 1524 1523 1522 1523 1525 1527 1528 1529
1478 1482 1486 1486 1489 1492 1497 1499 1500 1501 1498 1503 1503 1499 1495 1495 1496 1498 1502 1505 1506 1508 1510 1511 1512 1512 1512 1513 1514 1512 1513 1514 1519 1523 1522 1521 1522 1522 1523 1523 1524 1523 1525
1464 1468 1475 1476 1482 1488 1490 1493 1495 1494 1499 1495 1495 1493 1491 1487 1487 1490 1496 1499 1503 1504 1505 1506 1508 1509 1509 1510 1512 1513 1515 1515 1518 1520 1520 1520 1520 1520 1519 1518 1519 1520 1520
1457 1463 1465 1474 1477 1483 1485 1487 1491 1492 1501 1493 1490 1488 1486 1482 1481 1484 1490 1490 1499 1503 1502 1503 1505 1506 1507 1507 1507 1509 1513 1513 1513 1516 1515 1515 1515 1516 1515 1517 1517 1516 1515
1460 1460 1465 1468 1475 1478 1478 1485 1488 1490 1495 1486 1484 1485 1484 1484 1486 1488 1488 1492 1501 1499 1500 1501 1503 1503 1505 1505 1506 1505 1508 1510 1511 1512 1511 1511 1511 1511 1511 1511 1510 1511 1511
1457 1457 1460 1465 1470 1479 1475 1475 1481 1488 1487 1483 1479 1478 1479 1480 1484 1488 1490 1492 1496 1498 1499 1500 1500 1500 1504 1504 1505 1503 1508 1509 1508 1507 1507 1508 1508 1508 1506 1506 1506 1503 1502
1458 1459 1459 1460 1463 1463 1477 1485 1482 1482 1481 1479 1477 1477 1478 1477 1482 1486 1489 1493 1493 1493 1497 1500 1498 1501 1499 1503 1502 1503 1504 1505 1504 1504 1504 1503 1504 1503 1502 1501 1500 1499 1497
1454 1455 1459 1460 1461 1457 1479 1484 1480 1480 1478 1475 1476 1473 1479 1480 1481 1485 1488 1491 1494 1496 1497 1501 1503 1502 1500 1500 1500 1501 1501 1502 1501 1500 1500 1500 1498 1498 1496 1495 1495 1494 1494
1451 1454 1457 1456 1460 1464 1471 1471 1473 1476 1476 1474 1474 1474 1480 1481 1482 1485 1489 1491 1492 1497 1500 1503 1503 1500 1499 1498 1497 1497 1498 1498 1497 1497 1496 1494 1492 1492 1491 1490 1489 1488 1487
1448 1448 1450 1452 1456 1465 1466 1467 1470 1473 1470 1475 1470 1475 1479 1480 1483 1487 1489 1492 1494 1496 1500 1501 1500 1499 1497 1496 1496 1495 1494 1493 1493 1492 1490 1490 1490 1490 1488 1486 1483 1481 1482
1444 1448 1450 1453 1456 1468 1473 1474 1466 1467 1471 1470 1473 1477 1478 1479 1484 1488 1491 1492 1491 1494 1498 1499 1499 1496 1495 1494 1493 1492 1490 1490 1488 1488 1487 1487 1486 1486 1484 1482 1481 1480 1479
1440 1442 1449 1449 1449 1466 1464 1466 1464 1468 1475 1475 1474 1473 1479 1480 1485 1492 1493 1494 1496 1495 1496 1496 1496 1494 1492 1490 1490 1489 1490 1487 1490 1488 1488 1487 1485 1484 1481 1478 1478 1478 1476
1436 1441 1439 1443 1445 1460 1461 1459 1465 1473 1475 1475 1476 1475 1477 1481 1485 1491 1493 1496 1496 1495 1495 1494 1494 1493 1491 1490 1490 1490 1490 1491 1489 1487 1486 1484 1482 1480 1477 1476 1474 1471 1471
1430 1437 1440 1439 1448 1458 1457 1457 1468 1472 1474 1474 1475 1475 1477 1479 1484 1488 1491 1493 1493 1493 1493 1493 1493 1494 1495 1493 1491 1490 1489 1488 1485 1482 1480 1479 1477 1474 1472 1470 1467 1465 1462
1432 1440 1446 1447 1451 1453 1454 1458 1467 1470 1472 1471 1474 1475 1476 1482 1484 1486 1490 1492 1493 1494 1495 1496 1496 1494 1492 1491 1490 1489 1486 1482 1479 1477 1476 1473 1469 1467 1466 1465 1461 1459 1456
1436 1443 1450 1452 1448 1451 1457 1460 1468 1470 1470 1474 1476 1476 1480 1484 1483 1486 1489 1490 1490 1492 1494 1495 1493 1493 1491 1490 1488 1484 1481 1478 1475 1473 1470 1467 1464 1461 1459 1459 1457 1453 1450
1440 1449 1450 1453 1455 1456 1460 1464 1467 1470 1473 1474 1476 1477 1482 1482 1483 1485 1487 1489 1490 1491 1491 1494 1494 1492 1491 1488 1484 1480 1475 1472 1471 1469 1467 1466 1461 1459 1457 1456 1452 1449 1447
1448 1454 1456 1458 1462 1462 1461 1464 1470 1473 1473 1473 1474 1478 1483 1483 1482 1484 1485 1486 1488 1487 1489 1492 1492 1490 1488 1484 1480 1476 1473 1469 1466 1465 1465 1462 1459 1458 1454 1452 1450 1447 1444
1459 1462 1462 1465 1467 1467 1466 1467 1471 1472 1474 1474 1479 1478 1482 1481 1481 1483 1485 1485 1485 1486 1486 1488 1488 1488 1485 1479 1475 1472 1469 1466 1463 1463 1459 1458 1456 1453 1450 1449 1446 1444 1442
1463 1466 1468 1467 1469 1470 1468 1470 1471 1473 1474 1476 1477 1476 1478 1478 1479 1480 1482 1482 1483 1483 1483 1482 1482 1482 1481 1475 1471 1468 1465 1464 1462 1459 1457 1456 1453 1451 1448 1447 1444 1442 1441
1466 1468 1469 1470 1469 1468 1468 1469 1471 1472 1474 1474 1475 1474 1475 1476 1476 1476 1477 1478 1478 1477 1479 1479 1480 1477 1475 1470 1466 1464 1462 1460 1459 1457 1456 1454 1452 1450 1447 1445 1443 1440 1437
1468 1470 1471 1470 1469 1469 1468 1469 1470 1471 1472 1473 1473 1471 1471 1472 1473 1474 1476 1476 1477 1477 1475 1476 1476 1473 1470 1466 1462 1461 1459 1458 1456 1454 1452 1451 1449 1446 1444 1442 1439 1436 1433
1467 1469 1468 1468 1469 1470 1469 1467 1468 1468 1470 1470 1471 1470 1470 1470 1472 1473 1473 1472 1473 1474 1472 1471 1471 1468 1465 1462 1460 1458 1457 1455 1453 1452 1450 1448 1445 1442 1440 1437 1434 1431 1429
1465 1468 1468 1468 1469 1469 1469 1470 1468 1470 1469 1470 1471 1471 1471 1468 1468 1472 1471 1472 1471 1469 1467 1466 1465 1463 1460 1458 1457 1455 1454 1452 1451 1449 1446 1444 1441 1438 1435 1432 1430 1428 1425
1469 1471 1470 1471 1470 1470 1471 1469 1468 1471 1471 1470 1472 1470 1468 1466 1467 1471 1470 1469 1468 1465 1463 1461 1460 1458 1456 1455 1454 1451 1449 1448 1447 1445 1442 1440 1437 1434 1432 1429 1426 1423 1420
1469 1468 1469 1472 1470 1469 1471 1468 1468 1468 1469 1470 1467 1468 1467 1467 1465 1465 1462 1464 1462 1461 1458 1455 1453 1452 1450 1449 1448 1446 1444 1442 1441 1439 1437 1434 1431 1429 1427 1424 1421 1417 1413